Find Starlink 31147

NORAD ID: 58681 Int'l Des: 2023-211 Owner: SPXS Country: US Constellation: starlink operational
LEOCIRCULAR

当前视图

正在加载3D地球...

About Starlink 31147

Starlink 31147 (NORAD 58681) is a starlink constellation satellite (v2 mini) launched Dec 29, 2023 by SPXS of US. It operates in LEO, CIRCULAR orbit with a mass of 730.00 kg.

关于 Starlink 31147

正在加载描述...

即将过境

Passes for default location (London). Set your location on the main map for personalized predictions.

高度历史

Loading altitude history...

两行轨道根数

1 58681U 23211Q 26176.51609769 .00003096 00000-0 12194-3 0 9990
2 58681 43.0053 196.4757 0002390 276.2510 83.8069 15.27597219138959
Epoch: Jun 25, 2026 • Age: 41 hours

当前状态

高度 483.1 km
速度 7.63 km/s
星下点 23.01°N, 141.65°W
发射日期 Dec 29, 2023
运行时间 2.4 years
类型 internet

技术详情

分类 Payload
质量 730.00 kg
干质量 700.00 kg
总质量 730.00 kg
长度 0.30 m
直径 4.10 m
跨度 29.00 m
形状 Box + pan
制造商 SPXS
平台类型 Starlink V2M
阶段状态 In Orbit
所有者/国家 SPXS/US

Most Searched